Greenwood, SC

2:50 AM EDT on June 28, 2017 (GMT -0400)
Greenwood County

Weather History for KGRD - March, 2013

Change the Weather History Date:

Saturday, March 30, 2013

  Actual Average (KAND) Record (KAND)
Temperature  
Mean Temperature 59 °F -  
Max Temperature 71 °F 69 °F 85 °F (1985)
Min Temperature 48 °F 48 °F 25 °F (1964)
Degree Days  
Heating Degree Days 6    
Growing Degree Days 9 (Base 50)    
Moisture  
Dew Point 40 °F    
Average Humidity 54    
Maximum Humidity 74    
Minimum Humidity 32    
Precipitation  
Precipitation 0.00 in - - ()
Sea Level Pressure  
Sea Level Pressure 30.14 in    
Wind  
Wind Speed 3 mph (NE)    
Max Wind Speed 13 mph    
Max Gust Speed 18 mph    
Visibility 10 miles    
Events Rain    
Averages and records for this station are not official NWS values.
T = Trace of Precipitation, MM = Missing Value Source: NWS Daily Summary

Daily Weather History Graph

Daily Weather History Graph

Search for Another Location

Airport or City:

Trip Planner

Search our weather history database for the weather conditions in past years. The results will help you decide how hot, cold, wet, or windy it might be!

Date:

Astronomy

Mar. 30, 2013 Rise Set
Actual Time 7:18 AM EDT 7:48 PM EDT
Civil Twilight 6:53 AM EDT 8:13 PM EDT
Nautical Twilight 6:23 AM EDT 8:43 PM EDT
Astronomical Twilight 5:53 AM EDT 9:13 PM EDT
Moon 11:42 PM EDT (3/30) 9:22 AM EDT (3/30)
Length of Visible Light 13h 20m
Length of Day
12h 29m
Waning Gibbous, 86% of the Moon is Illuminated
Mar 30
Waning Gibbous
Apr 3
Last Quarter
Apr 10
New
Apr 18
First Quarter
Apr 25
Full

Hourly Weather History & Observations

Time (EDT) Temp. Dew Point Humidity Pressure Visibility Wind Dir Wind Speed Gust Speed Precip Events Conditions
12:56 AM 48.9 °F 37.0 °F 64% 30.23 in 10.0 mi Calm Calm - N/A   Overcast
1:56 AM 48.9 °F 37.0 °F 64% 30.21 in 10.0 mi Calm Calm - N/A   Overcast
2:56 AM 50.0 °F 37.9 °F 63% 30.22 in 10.0 mi Calm Calm - N/A   Overcast
3:56 AM 48.9 °F 39.9 °F 71% 30.20 in 10.0 mi NE 3.5 mph - 0.00 in   Overcast
4:56 AM 50.0 °F 39.0 °F 66% 30.16 in 10.0 mi Variable 4.6 mph - N/A   Overcast
5:56 AM 50.0 °F 39.9 °F 68% 30.18 in 10.0 mi NNE 4.6 mph - N/A   Overcast
6:56 AM 48.9 °F 39.9 °F 71% 30.19 in 10.0 mi NNE 3.5 mph - N/A   Overcast
7:56 AM 48.0 °F 39.9 °F 74% 30.20 in 10.0 mi North 4.6 mph - N/A   Partly Cloudy
8:56 AM 53.1 °F 41.0 °F 64% 30.21 in 10.0 mi NNE 6.9 mph - N/A   Clear
9:56 AM 55.9 °F 41.0 °F 57% 30.21 in 10.0 mi ENE 8.1 mph - N/A   Clear
10:56 AM 60.1 °F 39.0 °F 46% 30.20 in 10.0 mi NE 9.2 mph - N/A   Clear
11:56 AM 62.1 °F 39.0 °F 43% 30.19 in 10.0 mi NNE 8.1 mph - N/A   Partly Cloudy
12:56 PM 64.0 °F 39.9 °F 41% 30.17 in 10.0 mi Variable 3.5 mph - N/A   Clear
1:56 PM 64.9 °F 39.0 °F 39% 30.14 in 10.0 mi Variable 4.6 mph - N/A   Partly Cloudy
2:56 PM 68.0 °F 39.9 °F 36% 30.12 in 10.0 mi Variable 3.5 mph - N/A   Clear
3:56 PM 70.0 °F 39.0 °F 32% 30.09 in 10.0 mi WSW 10.4 mph 17.3 mph N/A   Partly Cloudy
4:56 PM 69.1 °F 39.0 °F 33% 30.08 in 10.0 mi West 12.7 mph 18.4 mph N/A   Clear
5:56 PM 68.0 °F 39.0 °F 35% 30.07 in 10.0 mi Calm Calm - N/A   Clear
6:56 PM 69.1 °F 39.9 °F 35% 30.06 in 10.0 mi Calm Calm - N/A   Clear
7:56 PM 61.0 °F 42.1 °F 50% 30.06 in 10.0 mi Calm Calm - N/A   Clear
8:56 PM 55.9 °F 44.1 °F 64% 30.06 in 10.0 mi East 3.5 mph - N/A   Clear
9:56 PM 59.0 °F 42.1 °F 53% 30.06 in 10.0 mi ESE 3.5 mph - N/A   Partly Cloudy
10:56 PM 59.0 °F 43.0 °F 55% 30.06 in 10.0 mi Calm Calm - N/A   Overcast
11:56 PM 57.0 °F 48.0 °F 72% 30.06 in 8.0 mi SSW 6.9 mph - 0.00 in Rain Light Rain